Hourly Weather Zydowek

Today, 5 March, Friday

Time Temperature Precipitation Wind Pressure Humidity
00:00 -2°C° 0 mm 4 mps 753 mmHg 87%
01:00 -2°C° 0 mm 4 mps 753 mmHg 84%
02:00 -2°C° 0 mm 3 mps 754 mmHg 84%
03:00 -2°C° 0 mm 3 mps 754 mmHg 85%
04:00 -4°C° 0 mm 3 mps 754 mmHg 85%
05:00 -4°C° 0 mm 3 mps 754 mmHg 85%
06:00 -4°C° 0 mm 3 mps 755 mmHg 85%
07:00 -4°C° 0 mm 3 mps 755 mmHg 84%
08:00 -1°C° 0 mm 3 mps 756 mmHg 77%
09:00 -1°C° 0 mm 4 mps 756 mmHg 69%
10:00 0°C° 0 mm 4 mps 756 mmHg 62%
11:00 0°C° 0 mm 4 mps 756 mmHg 57%
12:00 +1°C° 0 mm 4 mps 757 mmHg 52%
13:00 +3°C° 0 mm 3 mps 757 mmHg 47%
14:00 +1°C° 0.1 mm 4 mps 757 mmHg 47%
15:00 +1°C° 0.1 mm 4 mps 758 mmHg 47%
16:00 +1°C° 0.1 mm 4 mps 758 mmHg 46%
17:00 0°C° 0 mm 4 mps 758 mmHg 52%
18:00 0°C° 0 mm 3 mps 759 mmHg 57%
19:00 -1°C° 0 mm 3 mps 759 mmHg 63%
20:00 -2°C° 0 mm 3 mps 760 mmHg 66%
21:00 -2°C° 0 mm 3 mps 760 mmHg 69%
22:00 -2°C° 0 mm 3 mps 761 mmHg 73%
23:00 -4°C° 0 mm 3 mps 761 mmHg 75%

Tomorrow, 6 March, Saturday

Time Temperature Precipitation Wind Pressure Humidity
00:00 -4°C° 0 mm 3 mps 762 mmHg 77%
01:00 -4°C° 0 mm 3 mps 762 mmHg 79%
02:00 -4°C° 0 mm 3 mps 762 mmHg 78%
03:00 -3°C° 0 mm 2 mps 762 mmHg 78%
04:00 -3°C° 0 mm 2 mps 762 mmHg 77%
05:00 -3°C° 0 mm 2 mps 762 mmHg 77%
06:00 -3°C° 0 mm 2 mps 762 mmHg 77%
07:00 -3°C° 0 mm 2 mps 763 mmHg 77%
08:00 -1°C° 0 mm 3 mps 763 mmHg 69%
09:00 0°C° 0 mm 3 mps 763 mmHg 60%
10:00 +2°C° 0 mm 3 mps 763 mmHg 52%
11:00 +1°C° 0 mm 4 mps 763 mmHg 49%
12:00 +2°C° 0 mm 5 mps 762 mmHg 45%
13:00 +2°C° 0 mm 5 mps 762 mmHg 42%
14:00 +2°C° 0 mm 5 mps 762 mmHg 44%
15:00 +2°C° 0 mm 5 mps 761 mmHg 47%
16:00 +2°C° 0 mm 5 mps 761 mmHg 49%
17:00 +1°C° 0 mm 5 mps 760 mmHg 56%
18:00 0°C° 0 mm 5 mps 760 mmHg 62%
19:00 -1°C° 0 mm 5 mps 760 mmHg 69%
20:00 -1°C° 0 mm 5 mps 759 mmHg 75%
21:00 -2°C° 0 mm 6 mps 759 mmHg 82%
22:00 -2°C° 0 mm 6 mps 759 mmHg 89%
23:00 -2°C° 0 mm 6 mps 759 mmHg 89%

Day after tomorrow, 7 March, Sunday

Time Temperature Precipitation Wind Pressure Humidity
00:00 -2°C° 0 mm 7 mps 758 mmHg 89%
01:00 -2°C° 0 mm 7 mps 758 mmHg 88%
02:00 -2°C° 0 mm 7 mps 758 mmHg 85%
03:00 -2°C° 0 mm 7 mps 757 mmHg 82%
04:00 -2°C° 0 mm 7 mps 757 mmHg 79%
05:00 -2°C° 0 mm 7 mps 757 mmHg 81%
06:00 -4°C° 0 mm 8 mps 756 mmHg 83%
07:00 -4°C° 0 mm 8 mps 756 mmHg 85%
08:00 -2°C° 0 mm 8 mps 756 mmHg 80%
09:00 -1°C° 0 mm 8 mps 756 mmHg 76%
10:00 -1°C° 0 mm 8 mps 756 mmHg 72%
11:00 -1°C° 0 mm 8 mps 755 mmHg 72%
12:00 0°C° 0 mm 8 mps 755 mmHg 71%
13:00 0°C° 0 mm 8 mps 755 mmHg 71%
14:00 0°C° 0 mm 8 mps 754 mmHg 73%
15:00 -1°C° 0 mm 7 mps 754 mmHg 75%
16:00 -1°C° 0 mm 7 mps 753 mmHg 76%
17:00 -1°C° 0 mm 7 mps 753 mmHg 77%
18:00 -2°C° 0 mm 7 mps 753 mmHg 77%
19:00 -2°C° 0 mm 6 mps 753 mmHg 78%
20:00 -2°C° 0 mm 6 mps 752 mmHg 79%
21:00 -3°C° 0 mm 7 mps 752 mmHg 81%
22:00 -3°C° 0 mm 7 mps 752 mmHg 83%
23:00 -3°C° 0.1 mm 6 mps 752 mmHg 87%

8 March, Monday

Time Temperature Precipitation Wind Pressure Humidity
00:00 -3°C° 0.1 mm 6 mps 752 mmHg 91%
01:00 -2°C° 0.1 mm 5 mps 752 mmHg 95%
02:00 -2°C° 0.4 mm 5 mps 752 mmHg 93%
03:00 -3°C° 0.4 mm 4 mps 752 mmHg 91%
04:00 -4°C° 0.4 mm 3 mps 752 mmHg 90%
05:00 -4°C° 0 mm 3 mps 752 mmHg 89%
06:00 -4°C° 0 mm 3 mps 753 mmHg 89%
07:00 -5°C° 0 mm 3 mps 753 mmHg 88%
08:00 -4°C° 0 mm 3 mps 754 mmHg 79%
09:00 -2°C° 0 mm 4 mps 754 mmHg 69%
10:00 -1°C° 0 mm 4 mps 755 mmHg 60%
11:00 -1°C° 0 mm 5 mps 755 mmHg 59%
12:00 0°C° 0 mm 5 mps 755 mmHg 57%
13:00 0°C° 0 mm 5 mps 756 mmHg 56%
14:00 0°C° 0.1 mm 5 mps 756 mmHg 59%
15:00 -1°C° 0.1 mm 5 mps 756 mmHg 61%
16:00 -1°C° 0.1 mm 5 mps 756 mmHg 63%
17:00 -2°C° 0 mm 5 mps 756 mmHg 69%
18:00 -3°C° 0 mm 4 mps 757 mmHg 74%
19:00 -4°C° 0 mm 3 mps 757 mmHg 80%
20:00 -5°C° 0 mm 3 mps 758 mmHg 81%
21:00 -5°C° 0 mm 3 mps 758 mmHg 83%
22:00 -5°C° 0 mm 2 mps 759 mmHg 84%
23:00 -5°C° 0 mm 2 mps 759 mmHg 85%

9 March, Tuesday

Time Temperature Precipitation Wind Pressure Humidity
00:00 -5°C° 0 mm 2 mps 759 mmHg 86%
01:00 -5°C° 0 mm 2 mps 759 mmHg 86%
02:00 -5°C° 0 mm 2 mps 759 mmHg 84%
03:00 -3°C° 0 mm 1 mps 759 mmHg 82%
04:00 -3°C° 0 mm 1 mps 759 mmHg 80%
05:00 -3°C° 0 mm 1 mps 759 mmHg 76%
06:00 -3°C° 0 mm 1 mps 760 mmHg 72%
07:00 -3°C° 0 mm 0 mps 760 mmHg 68%
08:00 -2°C° 0 mm 1 mps 760 mmHg 61%
09:00 -1°C° 0 mm 1 mps 760 mmHg 55%
10:00 0°C° 0 mm 1 mps 760 mmHg 48%
11:00 0°C° 0 mm 1 mps 760 mmHg 44%
12:00 +1°C° 0 mm 1 mps 760 mmHg 40%
13:00 +2°C° 0 mm 1 mps 760 mmHg 37%
14:00 +2°C° 0 mm 1 mps 759 mmHg 37%
15:00 +2°C° 0 mm 1 mps 759 mmHg 36%
16:00 +1°C° 0 mm 2 mps 758 mmHg 36%
17:00 -1°C° 0 mm 2 mps 758 mmHg 40%
18:00 -2°C° 0 mm 2 mps 758 mmHg 45%
19:00 -3°C° 0 mm 2 mps 758 mmHg 49%
20:00 -4°C° 0 mm 2 mps 758 mmHg 51%
21:00 -4°C° 0 mm 2 mps 758 mmHg 52%
22:00 -5°C° 0 mm 3 mps 758 mmHg 54%
23:00 -5°C° 0 mm 3 mps 758 mmHg 56%

10 March, Wednesday

Time Temperature Precipitation Wind Pressure Humidity
00:00 -5°C° 0 mm 3 mps 758 mmHg 58%
01:00 -5°C° 0 mm 3 mps 757 mmHg 60%
02:00 -5°C° 0 mm 3 mps 757 mmHg 61%
03:00 -5°C° 0 mm 3 mps 757 mmHg 63%
04:00 -5°C° 0 mm 3 mps 756 mmHg 65%
05:00 -4°C° 0 mm 3 mps 756 mmHg 64%
06:00 -4°C° 0 mm 3 mps 756 mmHg 64%
07:00 -4°C° 0 mm 4 mps 756 mmHg 64%
08:00 -3°C° 0 mm 4 mps 755 mmHg 65%
09:00 -1°C° 0 mm 4 mps 755 mmHg 66%
10:00 0°C° 0 mm 5 mps 755 mmHg 66%
11:00 0°C° 0 mm 5 mps 754 mmHg 71%
12:00 +1°C° 0 mm 4 mps 754 mmHg 76%
13:00 +1°C° 0 mm 4 mps 753 mmHg 81%
14:00 +3°C° 0 mm 4 mps 753 mmHg 80%
15:00 +3°C° 0 mm 4 mps 752 mmHg 78%
16:00 +3°C° 0 mm 4 mps 751 mmHg 76%
17:00 +2°C° 0 mm 5 mps 751 mmHg 76%
18:00 +1°C° 0 mm 5 mps 750 mmHg 76%
19:00 +1°C° 0 mm 5 mps 749 mmHg 76%
20:00 +1°C° 0 mm 6 mps 749 mmHg 75%
21:00 +1°C° 0 mm 6 mps 748 mmHg 74%
22:00 +1°C° 0 mm 6 mps 747 mmHg 73%
23:00 +1°C° 0.2 mm 6 mps 747 mmHg 78%
Show more